WV4O Weather Reports


time (UTC)temp
C
wind
direction
speed
KPH
gust
KPH
rain 1hr
cm
rain 24hr
cm
rain mn
cm
humidity
%
barometer
mb
20260906122018 26 330 4.8 8.0 0.00 0.00 0.00 82 1013.0
20260906121030 26 5 3.2 4.8 0.00 0.00 0.00 84 1012.8
20260906120030 25 318 1.6 3.2 0.00 0.00 0.00 86 1012.6
20260906115030 25 12 1.6 3.2 0.00 0.00 0.00 88 1012.5
20260906114031 26 318 1.6 4.8 0.00 0.00 0.00 85 1012.3
20260906113031 25 240 3.2 3.2 0.00 0.00 0.00 87 1012.1
20260906112030 26 261 3.2 4.8 0.00 0.00 0.00 85 1012.0
20260906111016 25 300 1.6 3.2 0.00 0.00 0.00 86 1011.9
20260906110016 25 270 3.2 6.4 0.00 0.00 0.00 88 1011.7
20260906105016 25 268 4.8 6.4 0.00 0.00 0.00 87 1011.7
20260906104016 25 224 3.2 4.8 0.00 0.00 0.00 89 1011.8
20260906103017 25 253 4.8 8.0 0.00 0.00 0.00 88 1011.5
20260906102018 26 244 3.2 6.4 0.00 0.00 0.00 86 1011.4
20260906101017 25 329 4.8 9.7 0.00 0.00 0.00 87 1011.4
20260906100018 25 214 1.6 3.2 0.00 0.00 0.00 87 1011.4
20260906095018 25 262 3.2 6.4 0.00 0.00 0.00 88 1011.3
20260906094020 25 219 4.8 8.0 0.00 0.00 0.00 90 1011.3
20260906093039 25 218 3.2 4.8 0.00 0.00 0.00 88 1011.3
20260906092018 26 209 0.0 1.6 0.00 0.00 0.00 87 1011.3
20260906091017 26 84 0.0 1.6 0.00 0.00 0.00 85 1011.2
20260906090018 26 359 1.6 4.8 0.00 0.00 0.00 83 1011.2
20260906085039 27 34 1.6 4.8 0.00 0.00 0.00 82 1011.2
20260906084018 27 351 1.6 4.8 0.00 0.00 0.00 80 1011.2
20260906083016 27 323 1.6 8.0 0.00 0.00 0.00 80 1011.2
20260906082017 27 301 3.2 6.4 0.00 0.00 0.00 79 1011.2
20260906081016 27 302 1.6 4.8 0.00 0.00 0.00 83 1011.1
20260906080016 27 31 1.6 9.7 0.00 0.00 0.00 83 1011.1
20260906075016 27 294 1.6 4.8 0.00 0.00 0.00 80 1011.0
20260906074037 26 252 1.6 6.4 0.00 0.00 0.00 83 1011.1
20260906073017 27 245 1.6 4.8 0.00 0.00 0.00 83 1011.1
20260906072017 27 177 0.0 3.2 0.00 0.00 0.00 82 1011.1
20260906071017 26 343 3.2 8.0 0.00 0.00 0.00 85 1011.2
20260906070017 26 1 1.6 6.4 0.00 0.00 0.00 87 1011.2
20260906065018 26 108 3.2 11.3 0.00 0.00 0.00 87 1011.3
20260906064017 27 71 1.6 4.8 0.00 0.00 0.00 84 1011.2
20260906063017 27 16 0.0 1.6 0.00 0.00 0.00 82 1011.2
20260906062017 27 280 0.0 1.6 0.00 0.00 0.00 83 1011.2
20260906061017 27 93 0.0 1.6 0.00 0.00 0.00 84 1011.3
20260906060019 27 117 0.0 3.2 0.00 0.00 0.00 82 1011.4
20260906055017 28 62 0.0 1.6 0.00 0.00 0.00 78 1011.4
20260906054018 29 267 1.6 4.8 0.00 0.00 0.00 72 1011.3
20260906053018 28 295 1.6 3.2 0.00 0.00 0.00 71 1011.3
20260906052018 28 268 4.8 6.4 0.00 0.00 0.00 74 1011.5
20260906051018 28 243 3.2 6.4 0.00 0.00 0.00 75 1011.6
20260906050019 28 267 1.6 3.2 0.00 0.00 0.00 75 1011.6
20260906045016 28 252 3.2 4.8 0.00 0.00 0.00 76 1011.6
20260906044038 28 271 3.2 8.0 0.00 0.00 0.00 78 1011.7
20260906043016 28 233 1.6 4.8 0.00 0.00 0.00 79 1011.8
20260906042016 28 244 1.6 3.2 0.00 0.00 0.00 79 1011.8
20260906041016 28 182 0.0 1.6 0.00 0.00 0.00 78 1011.8
20260906040016 28 237 0.0 1.6 0.00 0.00 0.00 79 1011.8
20260906035018 28 204 0.0 1.6 0.00 0.00 0.00 77 1011.7
20260906034017 30 200 0.0 3.2 0.00 0.00 0.00 76 1011.6
20260906033017 31 278 1.6 3.2 0.00 0.00 0.00 63 1011.4
20260906032017 31 319 3.2 9.7 0.00 0.00 0.00 60 1011.2
20260906031038 31 290 1.6 6.4 0.00 0.00 0.00 62 1011.0
20260906030039 31 286 1.6 4.8 0.00 0.00 0.00 65 1010.9
20260906025017 31 268 1.6 4.8 0.00 0.00 0.00 65 1011.0
20260906024038 31 295 3.2 6.4 0.00 0.00 0.00 63 1010.9
20260906023018 30 278 3.2 6.4 0.00 0.00 0.00 69 1011.0
20260906022018 30 254 3.2 4.8 0.00 0.00 0.00 71 1010.9
20260906021019 30 247 3.2 4.8 0.00 0.00 0.00 70 1010.8
20260906020018 30 221 3.2 4.8 0.00 0.00 0.00 72 1010.7
20260906015038 31 217 0.0 3.2 0.00 0.00 0.00 68 1010.7
20260906014039 31 251 0.0 3.2 0.00 0.00 0.00 65 1010.6
20260906013019 32 246 1.6 4.8 0.00 0.00 0.00 61 1010.6
20260906012020 32 240 1.6 4.8 0.00 0.00 0.00 60 1010.6
20260906011016 32 255 3.2 6.4 0.00 0.00 0.00 61 1010.6
20260906010016 31 235 3.2 4.8 0.00 0.00 0.00 63 1010.5
20260906005017 31 221 1.6 4.8 0.00 0.00 0.00 64 1010.4
20260906004017 32 214 0.0 3.2 0.00 0.00 0.00 65 1010.5
20260906003016 33 102 0.0 1.6 0.00 0.00 0.00 62 1010.4
20260906002022 34 313 0.0 3.2 0.00 0.00 0.00 54 1010.4
20260906001017 35 249 3.2 6.4 0.00 0.00 0.00 51 1010.4
20260906000038 35 259 3.2 6.4 0.00 0.00 0.00 50 1010.5
20260905235018 35 243 0.0 3.2 0.00 0.00 0.00 49 1010.5
20260905234039 35 47 0.0 3.2 0.00 0.00 0.00 48 1010.5
20260905233017 36 40 1.6 4.8 0.00 0.00 0.00 46 1010.4
20260905232038 36 353 4.8 8.0 0.00 0.00 0.00 44 1010.5
20260905231017 36 24 3.2 6.4 0.00 0.00 0.00 45 1010.5
20260905230018 36 320 3.2 8.0 0.00 0.00 0.00 44 1010.6
20260905225038 36 304 4.8 9.7 0.00 0.00 0.00 42 1010.5
20260905224038 36 322 4.8 9.7 0.00 0.00 0.00 42 1010.4
20260905223018 36 306 4.8 9.7 0.00 0.00 0.00 42 1010.4
20260905222038 37 307 4.8 8.0 0.00 0.00 0.00 41 1010.5
20260905221018 36 322 4.8 8.0 0.00 0.00 0.00 41 1010.5
20260905220019 37 305 4.8 8.0 0.00 0.00 0.00 42 1010.5
20260905215018 37 294 3.2 8.0 0.00 0.00 0.00 41 1010.6
20260905214019 37 276 3.2 8.0 0.00 0.00 0.00 39 1010.7
20260905213016 37 45 1.6 6.4 0.00 0.00 0.00 40 1010.7
20260905212036 37 279 3.2 6.4 0.00 0.00 0.00 39 1010.7
20260905211016 38 243 1.6 8.0 0.00 0.00 0.00 39 1010.7
20260905210016 38 232 3.2 4.8 0.00 0.00 0.00 39 1010.8
20260905205016 37 216 3.2 8.0 0.00 0.00 0.00 40 1010.8
20260905204017 36 215 3.2 8.0 0.00 0.00 0.00 43 1010.9
20260905203017 36 173 3.2 6.4 0.00 0.00 0.00 43 1011.1
20260905202036 36 206 4.8 9.7 0.00 0.00 0.00 44 1011.3
20260905201018 36 195 3.2 8.0 0.00 0.00 0.00 44 1011.4
20260905200017 36 139 3.2 8.0 0.00 0.03 0.00 45 1011.5
20260905195018 37 182 3.2 6.4 0.00 0.05 0.00 43 1011.7
20260905194040 37 208 3.2 9.7 0.00 0.08 0.00 43 1011.8
20260905193017 37 219 6.4 11.3 0.00 0.08 0.00 44 1012.0
20260905192058 37 224 8.0 12.9 0.00 0.08 0.00 42 1012.2
20260905191038 37 216 8.0 12.9 0.00 0.41 0.00 41 1012.3
20260905190018 37 239 4.8 12.9 0.00 1.91 0.00 39 1012.3
20260905185018 37 199 3.2 8.0 0.00 2.13 0.00 41 1012.4
20260905184018 36 264 3.2 6.4 0.00 2.13 0.00 43 1012.5
20260905183038 36 336 3.2 6.4 0.00 2.13 0.00 43 1012.6
20260905182020 36 153 3.2 6.4 0.00 2.13 0.00 44 1012.7
20260905181018 36 271 3.2 6.4 0.00 2.13 0.00 44 1012.8
20260905180019 36 92 1.6 4.8 0.00 2.13 0.00 45 1012.9
20260905175015 35 267 4.8 9.7 0.00 2.13 0.00 46 1013.0
20260905174016 36 334 3.2 8.0 0.00 2.13 0.00 45 1013.2
20260905173016 36 62 4.8 12.9 0.00 2.13 0.00 44 1013.1
20260905172037 36 216 4.8 8.0 0.00 2.13 0.00 45 1013.2
20260905171017 35 221 3.2 6.4 0.00 2.13 0.00 46 1013.4
20260905170016 36 303 4.8 11.3 0.00 2.13 0.00 44 1013.3
20260905165017 36 319 4.8 12.9 0.00 2.13 0.00 46 1013.4
20260905164016 36 135 1.6 4.8 0.00 2.13 0.00 46 1013.5
20260905163037 35 321 3.2 6.4 0.00 2.13 0.00 48 1013.6
20260905162017 35 277 3.2 8.0 0.00 2.13 0.00 47 1013.7
20260905161017 35 268 4.8 12.9 0.00 2.13 0.00 47 1013.7
20260905160018 35 210 3.2 6.4 0.00 2.13 0.00 49 1013.8
20260905155019 35 279 1.6 6.4 0.00 2.13 0.00 50 1013.8
20260905154017 34 337 3.2 6.4 0.00 2.13 0.00 52 1013.9
20260905153017 34 314 3.2 8.0 0.00 2.13 0.00 52 1014.0
20260905152017 33 238 4.8 6.4 0.00 2.13 0.00 54 1014.0
20260905151017 33 241 3.2 9.7 0.00 2.13 0.00 58 1014.0
20260905150016 32 153 1.6 4.8 0.00 2.13 0.00 64 1014.1
20260905145057 32 150 1.6 6.4 0.00 2.13 0.00 67 1014.1
20260905144038 32 107 1.6 4.8 0.00 2.13 0.00 67 1014.1
20260905143038 31 210 1.6 6.4 0.00 2.13 0.00 67 1014.1
20260905142017 31 210 1.6 3.2 0.00 2.13 0.00 67 1014.1
20260905141037 30 20 1.6 6.4 0.00 2.13 0.00 71 1014.1
20260905140018 30 51 0.0 1.6 0.00 2.13 0.00 74 1014.0
20260905135016 29 82 0.0 3.2 0.00 2.13 0.00 75 1014.0
20260905134016 28 107 0.0 3.2 0.00 2.13 0.00 77 1014.0
20260905133016 28 63 1.6 4.8 0.00 2.13 0.00 78 1014.0
20260905132056 28 129 0.0 1.6 0.00 2.13 0.00 78 1014.0
20260905131018 27 118 0.0 1.6 0.00 2.13 0.00 80 1013.9
20260905130016 27 91 0.0 3.2 0.00 2.13 0.00 80 1013.8
20260905125016 26 46 0.0 1.6 0.00 2.13 0.00 84 1013.8
20260905124059 26 82 0.0 1.6 0.00 2.13 0.00 86 1013.8
20260905123017 25 63 0.0 1.6 0.00 2.13 0.00 86 1013.8